#timestamp,LO_Frequency,Hit,StdDev 
1550718015.7,286047001.9,P
1550718035.5,286047002.4,N
1550718055.4,286047002.4,N
1550718075.2,286047002.3,N
1550718095.1,286047002.2,N
1550718096.0,286047002.2,N
1550718115.8,286047000.1,N
1550718135.6,286047000.1,N
1550718155.5,286047000.2,N
1550718175.3,286047002.8,N
1550718195.1,286046999.7,N
1550718215.9,286047000.1,N
1550718235.7,286047002.6,N
1550718255.6,286047000.0,N
1550718275.4,286046998.7,N
1550718295.2,286046998.3,N
1550718315.1,286046998.9,N
1550718316.0,286046998.9,N
1550718335.8,286047000.6,N
1550718355.7,286047000.7,N
1550718375.5,286046998.5,N
1550718395.3,286047001.2,N
1550718415.2,286047000.7,N
1550718435.0,286047000.7,N
1550718435.9,286047000.7,N
1550718455.7,286047000.7,N
1550718475.6,286047002.2,N
1550718495.4,286047001.7,N
1550718515.3,286047003.2,N
1550718535.1,286047003.1,N
1550718536.0,286047003.1,N
1550718555.8,286047003.5,N
1550718575.7,286047004.4,N
1550718595.5,286047002.3,N
1550718615.4,286047002.2,N
1550718635.2,286047002.5,N
1550718655.0,286047002.2,N
1550718655.9,286047002.2,N
1550718675.8,286047004.2,N
1550718695.6,286047002.3,N
1550718715.4,286047000.2,N
1550718735.3,286047002.8,N
1550718755.1,286047000.1,N
1550718775.9,286047000.3,N
1550718795.7,286046998.3,N
1550718815.5,286047000.9,N
1550718835.4,286046998.1,N
1550718855.2,286047000.0,N
1550718875.0,286047002.3,N
1550718876.0,286047002.3,N
1550718895.8,286047002.1,N
1550718915.6,286047000.9,N
1550718935.5,286047002.5,N
1550718955.3,286047001.4,N
1550718975.1,286047004.4,N
1550718995.9,286047003.1,N
1550719015.7,286047004.4,N
1550719035.6,286047004.2,N
1550719055.4,286047001.8,N
1550719075.2,286047002.3,N
1550719095.1,286047002.8,N
1550719096.0,286047002.8,N
1550719115.8,286047002.4,N
1550719135.6,286047000.1,N
1550719155.5,286046999.7,N
1550719175.3,286047000.0,N
1550719195.2,286047000.0,N
1550719215.9,286047002.4,N
1550719235.7,286046999.7,N
1550719255.6,286047002.3,N
1550719275.4,286047001.9,N
1550719295.2,286047002.2,N
1550719315.1,286047004.0,N
1550719316.0,286047004.0,N
1550719335.8,286047002.0,N
1550719355.7,286047001.8,N
1550719375.5,286047002.1,N
1550719395.3,286047002.7,N
1550719415.2,286046999.8,N
1550719435.0,286047000.1,N
1550719435.9,286047000.1,N
1550719455.7,286046999.7,N
1550719475.6,286047001.9,N
1550719495.4,286047003.8,N
1550719515.3,286047001.7,N
1550719535.1,286047003.0,N
1550719555.8,286047002.0,N
1550719575.7,286047001.8,N
1550719595.5,286047002.7,N
1550719615.3,286046999.8,N
1550719635.2,286047002.3,N
1550719655.0,286047002.5,N
1550719655.9,286047002.5,N
1550719675.8,286047001.9,N
1550719695.6,286047003.6,N
1550719715.4,286047001.6,N
1550719735.3,286047001.9,N
1550719755.1,286046999.8,N
1550719775.9,286047002.7,N
1550719795.7,286046999.9,N
1550719815.5,286047001.9,N
1550719835.4,286047003.0,N
1550719855.2,286047002.3,N
1550719875.0,286047000.5,N
1550719875.9,286047000.5,N
1550719895.8,286046999.7,N
1550719915.6,286047000.0,N
1550719935.5,286047000.3,N
1550719955.3,286047002.5,N
1550719975.1,286047000.0,N
1550719995.9,286047000.6,N
1550720015.7,286047000.1,N
1550720035.5,286047002.5,N
1550720055.4,286047002.8,N
1550720075.2,286047002.7,N
1550720095.1,286047002.3,N
1550720096.0,286047002.3,N
1550720115.8,286047002.3,N
1550720135.6,286047001.6,N
1550720155.5,286047002.1,N
1550720175.3,286047005.8,Y
1550720195.1,286047001.9,P
1550720215.9,286047003.5,P
1550720235.7,286047005.5,P
1550720255.6,286047001.3,N
1550720275.4,286047001.4,N
1550720295.2,286046999.7,N
1550720315.1,286047004.2,N
1550720316.0,286047004.2,N
1550720335.8,286047001.4,N
1550720355.7,286047003.9,N
1550720375.5,286047003.6,N
1550720395.3,286047001.3,N
1550720415.2,286047004.1,N
1550720435.0,286047006.0,Y
1550720435.9,286047006.0,P
1550720455.8,286047000.4,N
1550720475.6,286046998.5,N
1550720495.4,286046999.1,N
1550720515.3,286046999.4,N
1550720535.1,286046998.6,N
1550720555.8,286046999.2,N
1550720575.7,286047000.8,N
1550720595.5,286046998.7,N
1550720615.4,286046998.7,N
1550720635.2,286047001.1,N
1550720655.0,286046999.9,N
1550720655.9,286046999.9,N
1550720675.8,286047000.7,N
1550720695.6,286046998.4,N
1550720715.4,286046996.5,N
1550720735.3,286046999.1,N
1550720755.1,286046997.0,N
1550720775.9,286046996.7,N
1550720795.7,286046999.2,N
1550720815.5,286046998.5,N
1550720835.4,286046998.8,N
1550720855.2,286046998.6,N
1550720875.0,286046997.7,N
1550720875.9,286046997.7,N
1550720895.8,286046997.0,N
1550720915.6,286046997.2,N
1550720935.5,286046999.6,N
1550720955.3,286046999.6,N
1550720975.1,286046999.0,N
1550720995.9,286046999.0,N
1550721015.7,286046998.3,N
1550721035.6,286046998.6,N
1550721055.4,286046997.2,N
1550721075.2,286046996.5,Y
1550721095.1,286046999.4,P
1550721096.0,286046999.4,N
1550721115.8,286046998.3,P
1550721135.6,286046999.0,N
1550721155.5,286047000.5,N
1550721175.3,286047001.1,N
1550721195.2,286047001.7,N
1550721215.9,286047001.5,N
1550721235.7,286047001.9,N
1550721255.6,286047002.7,N
1550721275.4,286046998.8,N
1550721295.3,286046999.0,N
1550721315.1,286046998.1,N
1550721316.0,286046998.1,N
1550721335.8,286046999.7,N
1550721355.7,286047002.3,N
1550721375.5,286047002.8,N
1550721395.3,286047001.0,N
1550721415.2,286047002.4,N
1550721435.0,286046999.9,N
1550721435.9,286046999.9,N
1550721455.8,286047000.4,N
1550721475.6,286047001.7,N
1550721495.4,286047002.8,N
1550721515.3,286047000.1,N
1550721535.1,286047000.4,N
1550721555.8,286047000.5,N
1550721575.7,286047002.7,N
1550721595.5,286047000.7,N
